Home > Weather > Dalian > Past weeks

Flag for China Past Weather in Dalian, Liaoning, China — Yesterday and Last 2 Weeks

Now
88 °F

Haze.


Feels Like: 91 °F
Forecast: 72 / 79 °F
Wind: 10 mph from Southeast

Location: Dalian Airport

Current Time: Jun 27, 2016 at 1:56:06 PM

Latest Report: Jun 27, 2016 at 1:30 PM


Visibility: 3 mi

Pressure: 29.68 "Hg

Humidity: 52%

Dew Point: 68 °F

Location of DalianLocation

Past Weather in Dalian — Graph

°F

Dalian Temperature Yesterday

Maximum temperature yesterday: 93 °F (at 2:00 PM)
Minimum temperature yesterday: 70 °F (at 3:00 AM)
Average temperature yesterday: 82 °F

High & Low Weather Summary for the Past Weeks

 TemperatureHumidityPressure
High93 °F (Jun 17, 2:30 PM)100% (Jun 15, 2:00 AM)29.80 "Hg (Jun 15, 2:00 AM)
Low61 °F (Jun 16, 1:30 AM)23% (Jun 13, 9:00 AM)29.45 "Hg (Jun 15, 5:00 AM)
Average74 °F68%29.64 "Hg
* Reported Jun 12 12:00 PM — Jun 27 12:30 PM, Dalian, Weather by CustomWeather, © 2016

Note: Actual official high and low records may vary slightly from our data, if they occured in-between our weather recording intervals... More about our weather records

Advertising

Dalian Weather History for the Previous 24 Hours

Scroll right to see more
 ConditionsComfort  
Time TempWeatherWind HumidityBarometerVisibility
12:30 PM
Mon, Jun 27
86 °FHaze.8 mph55%29.71 "Hg3 mi
12:00 PM88 °FPassing clouds.6 mph52%29.71 "Hg4 mi
11:30 AM88 °FPassing clouds.6 mph52%29.71 "Hg4 mi
11:00 AM86 °FPassing clouds.6 mph52%29.71 "Hg4 mi
10:30 AM86 °FPassing clouds.6 mph52%29.71 "Hg4 mi
10:00 AM84 °FPassing clouds.3 mph55%29.71 "Hg4 mi
9:30 AM82 °FScattered clouds.6 mph55%29.71 "Hg4 mi
9:00 AM84 °FScattered clouds.6 mph55%29.71 "Hg4 mi
8:30 AM82 °FScattered clouds.3 mph58%29.71 "Hg4 mi
8:00 AM82 °FScattered clouds.1 mph58%29.74 "Hg4 mi
7:30 AM79 °FScattered clouds.3 mph65%29.71 "Hg4 mi
7:00 AM79 °FScattered clouds.3 mph61%29.71 "Hg4 mi
6:30 AM77 °FSunny.3 mph65%29.71 "Hg10 mi
6:00 AM77 °FSunny.1 mph61%29.71 "Hg10 mi
5:30 AM77 °FSunny.3 mph57%29.71 "Hg10 mi
5:00 AM77 °FPassing clouds.3 mph61%29.74 "HgN/A
4:30 AM77 °FSunny.1 mph54%29.71 "Hg10 mi
4:00 AM79 °FClear.1 mph51%29.71 "Hg10 mi
3:30 AM79 °FClear.6 mph48%29.71 "Hg10 mi
3:00 AM79 °FClear.6 mph48%29.71 "Hg10 mi
2:30 AM81 °FPassing clouds.6 mph42%29.71 "HgN/A
2:00 AM79 °FClear.1 mph45%29.71 "Hg10 mi
1:30 AM79 °FClear.1 mph45%29.74 "Hg10 mi
1:00 AM77 °FClear.1 mph47%29.71 "Hg10 mi
12:30 AM79 °FClear.1 mph42%29.74 "Hg10 mi
12:00 AM77 °FClear.1 mph44%29.74 "Hg10 mi
11:30 PM
Sun, Jun 26
79 °FPassing clouds.3 mph42%29.74 "HgN/A
11:00 PM79 °FClear.6 mph45%29.74 "Hg10 mi
10:30 PM82 °FClear.1 mph30%29.74 "Hg10 mi
10:00 PM82 °FClear.1 mph30%29.74 "Hg10 mi
9:30 PM84 °FPassing clouds.3 mph27%29.74 "HgN/A
9:00 PM82 °FPassing clouds.3 mph30%29.74 "HgN/A
8:30 PM82 °FClear.1 mph35%29.74 "Hg10 mi
8:00 PM82 °FPassing clouds.3 mph37%29.74 "HgN/A
7:30 PM84 °FPassing clouds.3 mph40%29.71 "HgN/A
7:00 PM84 °FPassing clouds.3 mph35%29.71 "HgN/A
6:30 PM86 °FPassing clouds.6 mph33%29.71 "HgN/A
6:00 PM88 °FPassing clouds.8 mph31%29.71 "HgN/A
5:30 PM88 °FPassing clouds.10 mph29%29.71 "HgN/A
5:00 PM90 °FPassing clouds.13 mph27%29.71 "HgN/A
4:30 PM90 °FSunny.15 mph26%29.71 "Hg10 mi
4:00 PM91 °FSunny.13 mph26%29.71 "Hg10 mi
3:30 PM91 °FSunny.15 mph28%29.71 "Hg10 mi
3:00 PM91 °FSunny.15 mph26%29.71 "Hg10 mi
2:30 PM93 °FPassing clouds.13 mph26%29.71 "HgN/A
2:00 PM93 °FSunny.20 mph26%29.71 "Hg10 mi
1:30 PM91 °FSunny.17 mph28%29.71 "Hg10 mi
1:00 PM91 °FSunny.17 mph26%29.74 "Hg10 mi
Weather by CustomWeather, © 2016

See weather overviewHow to use our weather pages